Location: Unspecified
(49.2170°N, 0.0000°E)
Time: 08:12:19
(UTC+00:00)

Vanguard 3 - Pass Details

Date: 23 January 2021
Orbit: 508 x 3262 km, 33.4° (Epoch: 08 March)

Event Time Altitude Azimuth Distance (km) Brightness Sun altitude
Rises 07:31:16 0° 259° (WSW) 4,633 10.5 -2.4°
Reaches altitude 10° 07:34:16 10° 249° (WSW) 3,992 10.3 -2.0°
Maximum altitude 07:44:01 34° 190° (S) 3,395 10.6 -0.6°
Drops below altitude 10° 07:58:30 10° 135° (SE) 5,926 13.5 1.5°
Sets 08:04:13 0° 128° (SE) 7,141 15.1 2.2°
